TimeCDT,TemperatureF,Dew PointF,Humidity,Sea Level PressureIn,VisibilityMPH,Wind Direction,Wind SpeedMPH,Gust SpeedMPH,PrecipitationIn,Events,Conditions,WindDirDegrees,DateUTC
12:52 AM,62.1,44.1,52,29.86,-9999.0,SE,5.8,-,N/A,,Clear,130,2013-05-16 05:52:00
1:52 AM,60.1,44.1,55,29.86,-9999.0,East,6.9,-,N/A,,Clear,80,2013-05-16 06:52:00
2:52 AM,59.0,44.1,58,29.86,-9999.0,East,4.6,-,N/A,,Clear,80,2013-05-16 07:52:00
3:52 AM,57.0,44.1,62,29.84,-9999.0,East,5.8,-,N/A,,Clear,80,2013-05-16 08:52:00
4:52 AM,57.9,44.1,60,29.83,-9999.0,East,8.1,-,N/A,,Clear,100,2013-05-16 09:52:00
5:52 AM,55.9,44.1,64,29.83,-9999.0,ESE,4.6,-,N/A,,Clear,110,2013-05-16 10:52:00
6:52 AM,55.9,44.1,64,29.81,-9999.0,East,9.2,-,N/A,,Clear,90,2013-05-16 11:52:00
7:52 AM,60.1,44.1,55,29.81,-9999.0,East,9.2,-,N/A,,Clear,90,2013-05-16 12:52:00
8:52 AM,63.0,45.0,52,29.82,-9999.0,East,4.6,-,N/A,,Mostly Cloudy,90,2013-05-16 13:52:00
9:52 AM,62.1,48.9,62,29.83,-9999.0,West,6.9,-,N/A,,Overcast,270,2013-05-16 14:52:00
10:06 AM,59.0,51.8,77,29.86,-9999.0,Calm,Calm,-,0.05,Rain-Thunderstorm,Light Thunderstorms and Rain,0,2013-05-16 15:06:00
10:52 AM,55.0,54.0,96,29.89,-9999.0,SSW,3.5,-,0.17,Rain-Thunderstorm,Light Thunderstorms and Rain,200,2013-05-16 15:52:00
11:15 AM,55.4,53.6,94,29.89,-9999.0,East,3.5,-,0.06,Rain,Light Rain,90,2013-05-16 16:15:00
11:52 AM,55.0,54.0,96,29.86,-9999.0,East,8.1,-,0.16,Rain,Rain,80,2013-05-16 16:52:00
12:52 PM,57.0,55.9,96,29.83,-9999.0,East,8.1,-,0.11,Rain,Light Rain,80,2013-05-16 17:52:00
1:35 PM,59.0,57.2,94,29.85,-9999.0,NE,6.9,-,0.01,,Overcast,40,2013-05-16 18:35:00
1:52 PM,59.0,57.9,96,29.79,-9999.0,ESE,13.8,-,0.01,,Overcast,120,2013-05-16 18:52:00
1:58 PM,59.0,57.2,94,29.81,-9999.0,ESE,16.1,-,N/A,,Overcast,120,2013-05-16 18:58:00
2:19 PM,60.8,60.8,100,29.81,-9999.0,East,12.7,-,0.00,,Overcast,100,2013-05-16 19:19:00
2:52 PM,62.1,59.0,90,29.80,-9999.0,East,15.0,-,0.00,,Overcast,90,2013-05-16 19:52:00
3:25 PM,62.6,59.0,88,29.82,-9999.0,ENE,12.7,-,N/A,,Overcast,60,2013-05-16 20:25:00
3:48 PM,64.4,59.0,83,29.81,-9999.0,East,12.7,-,N/A,,Overcast,80,2013-05-16 20:48:00
3:52 PM,64.0,59.0,84,29.79,-9999.0,East,12.7,-,N/A,,Overcast,90,2013-05-16 20:52:00
4:01 PM,64.4,57.2,77,29.81,-9999.0,East,12.7,-,N/A,,Overcast,90,2013-05-16 21:01:00
4:52 PM,66.9,59.0,76,29.76,-9999.0,East,10.4,-,N/A,,Overcast,100,2013-05-16 21:52:00
5:52 PM,69.1,60.1,73,29.75,-9999.0,East,15.0,-,N/A,,Clear,90,2013-05-16 22:52:00
6:52 PM,68.0,60.1,76,29.75,-9999.0,East,15.0,-,N/A,,Clear,80,2013-05-16 23:52:00
7:52 PM,66.0,59.0,78,29.73,-9999.0,East,11.5,-,N/A,,Partly Cloudy,90,2013-05-17 00:52:00
8:52 PM,64.0,59.0,84,29.74,-9999.0,East,8.1,-,N/A,,Partly Cloudy,90,2013-05-17 01:52:00
9:52 PM,62.1,57.9,86,29.76,-9999.0,East,9.2,-,N/A,,Clear,90,2013-05-17 02:52:00
10:52 PM,61.0,57.9,90,29.77,-9999.0,ESE,6.9,-,N/A,,Partly Cloudy,120,2013-05-17 03:52:00
11:52 PM,60.1,57.9,93,29.79,-9999.0,East,4.6,-,0.00,Rain,Light Rain,100,2013-05-17 04:52:00